Tracking 30696 objects as of 15-Jun-2025
HD Live streaming from Space Station
objects crossing your sky now

STARLINK-11519

Track STARLINK-11519 now!
10-day predictions
STARLINK-11519 is classified as:


NORAD ID: 62560
Int'l Code: 2025-006G
Perigee: 362.2 km
Apogee: 364.5 km
Inclination: 43.0 °
Period: 91.7 minutes
Semi major axis: 6734 km
RCS: Unknown
Launch date: January 10, 2025
Source: United States (US)
Launch site: AIR FORCE EASTERN TEST RANGE (AFETR)
Your satellite tracking list
Your tracking list is empty




NASA's NSSDC Master Catalog

Two Line Element Set (TLE):
1 62560U 25006G   25166.10440695  .00227919  00000-0  17244-2 0  9991
2 62560  42.9986 313.2194 0001665 304.7179  55.3531 15.70937272 25597
Source of the keplerian elements: AFSPC